RH
26 20 14 10 7 5 4 4 3 3 3 4 4 5 5 6 7 7 8 8 8 8 8 8 8 8 8 8 8 8 8 8 8 8 8 8 9 10 10 10 10 11 12 12 12 13 13 14 14 15 15 16 16 16 17 16 15 13 11 8 7 6 6 7 8 8 10 10 10 11 12 12 12 12 10 7 4 2 2 2 3 3 4 4 4 5
16 12 8 6 5 3 2 3 3 3 3 4 5 6 6 7 8 8 8 8 8 8 8 8 8 8 8 8 8 8 8 8 8 8 9 9 10 10 10 11 11 12 12 13 13 14 14 15 15 16 16 16 17 17 17 16 14 11 8 7 6 6 7 8 8 10 10 10 11 11 12 13 12 11 9 6 3 2 2 3 3 4 4 4 5 5
10 8 6 4 4 3 2 3 3 4 4 4 6 6 7 8 8 8 9 9 9 9 9 8 8 8 8 8 8 8 8 8 9 9 10 10 10 10 11 11 12 13 13 14 14 15 15 16 16 16 17 18 18 17 16 14 11 9 7 6 6 7 8 8 9 10 10 10 11 12 12 13 12 10 8 4 3 2 2 3 4 4 4 4 5 5
8 6 5 4 3 2 2 2 3 4 5 6 6 7 8 8 8 9 10 10 10 10 10 9 9 9 9 9 9 9 9 9 10 10 10 10 10 11 11 12 13 13 14 14 15 15 16 16 17 17 18 18 18 16 14 12 10 7 6 6 6 7 8 8 9 10 10 10 11 12 13 13 12 10 6 4 2 2 3 3 4 4 4 5 5 6
6 5 4 4 3 3 2 3 4 5 6 6 7 8 8 8 9 10 10 10 10 10 10 10 10 10 9 9 9 9 9 9 10 10 10 10 10 11 12 12 13 14 14 15 15 16 16 17 18 18 18 18 17 15 12 10 8 6 6 6 7 8 8 8 9 10 10 10 12 12 13 13 11 8 5 3 2 2 3 3 4 4 4 5 5 6
5 4 4 4 3 3 3 4 4 5 6 7 8 8 9 10 10 10 10 10 10 10 10 10 10 10 10 9 9 9 9 10 10 10 10 10 11 12 12 13 14 14 15 16 16 16 17 18 18 18 18 17 16 13 10 8 6 6 6 6 7 8 8 8 9 10 10 11 12 13 14 13 10 8 4 3 2 2 3 4 4 4 4 5 5 6
4 4 3 3 3 3 4 4 5 6 6 8 8 9 10 10 10 10 11 11 10 10 10 10 10 10 10 10 9 9 9 10 10 10 10 11 12 13 13 14 15 15 16 16 17 17 18 18 19 18 18 16 14 11 8 7 6 6 6 6 7 8 8 8 8 9 10 11 12 13 14 12 10 7 4 3 2 3 3 4 4 4 4 5 5 6
4 4 4 4 4 4 4 5 6 6 7 8 9 10 10 10 10 11 11 10 10 10 10 10 10 10 10 10 10 10 10 10 10 11 11 12 13 14 15 16 16 16 17 17 18 18 19 19 19 18 17 14 12 10 7 6 5 5 6 6 7 7 8 8 8 9 10 11 12 13 14 12 10 6 4 3 3 3 3 4 4 4 5 5 5 6
4 4 4 4 4 5 6 6 6 7 8 8 10 10 10 10 10 10 10 10 10 10 10 10 10 10 10 10 10 10 10 10 11 12 12 14 14 16 16 17 17 18 18 18 19 19 19 19 18 17 16 13 10 8 6 6 5 5 6 6 7 7 8 8 8 9 10 11 12 14 14 11 8 6 4 3 3 3 4 4 4 4 5 5 6 6
4 4 4 4 5 5 6 7 7 8 8 9 10 10 10 10 10 10 10 10 10 9 9 10 10 10 10 10 10 10 10 11 12 12 14 15 16 17 18 18 18 18 19 19 20 20 20 19 18 16 14 12 10 7 6 5 5 5 6 6 6 7 7 8 8 9 10 12 13 14 13 11 8 6 4 3 3 3 4 4 4 5 5 6 6 6
3 4 4 5 5 6 6 7 8 8 9 10 10 10 10 10 10 10 10 9 9 9 9 9 10 10 10 10 10 11 11 12 13 14 15 16 18 18 19 19 19 20 20 20 20 20 20 18 17 15 13 10 8 7 6 5 5 5 5 6 6 6 7 7 8 10 11 12 13 14 12 10 8 6 4 4 4 4 4 4 5 5 6 6 6 7
3 4 5 5 6 6 7 8 8 8 10 10 10 10 10 10 10 10 10 9 9 9 9 9 10 10 10 10 11 11 12 13 14 16 17 18 19 20 20 20 20 20 20 20 20 20 19 18 16 14 12 10 8 6 5 5 5 5 5 5 6 6 6 7 8 10 12 13 14 13 12 10 8 6 4 4 4 4 5 5 6 6 6 7 8 8
4 5 5 6 7 8 8 8 9 10 10 10 10 10 10 10 10 10 10 10 10 9 9 10 10 10 11 12 12 12 13 14 15 17 18 19 20 20 20 20 20 20 20 20 20 20 19 17 16 14 12 10 8 6 5 5 4 4 4 5 5 6 7 8 9 11 12 14 14 13 11 9 7 6 5 5 5 5 6 6 6 7 8 8 8 9
4 5 6 7 8 8 8 9 10 10 10 10 10 10 10 10 10 10 10 10 10 10 10 10 11 11 12 13 13 14 14 15 16 18 20 20 21 21 21 20 20 20 21 21 20 20 18 17 15 13 11 10 8 6 5 5 4 4 4 5 5 6 7 8 10 12 14 14 14 12 10 8 7 6 6 6 6 6 6 7 8 8 8 10 10 10
5 6 7 8 8 8 9 10 10 10 11 11 11 11 11 11 11 10 10 10 10 10 11 12 12 13 14 15 15 16 16 17 18 19 20 22 22 22 22 21 21 21 21 21 21 20 18 17 15 13 11 10 8 6 5 5 4 4 4 5 6 7 8 10 12 13 14 14 13 12 10 8 8 7 6 6 7 7 8 8 8 10 10 11 12 12
6 7 8 8 9 10 10 10 11 11 12 12 12 12 12 12 12 11 11 11 11 12 12 12 13 14 16 18 18 19 19 20 20 21 22 22 23 23 22 22 22 22 22 22 21 20 19 17 15 14 12 10 8 7 6 5 5 5 6 6 8 8 10 12 13 14 14 14 12 11 10 8 8 8 8 8 8 8 8 9 10 10 12 13 14 15
8 8 9 10 10 10 11 11 12 12 13 13 13 13 13 13 13 13 13 13 13 13 13 13 14 15 16 19 20 21 22 22 22 22 22 22 23 23 23 23 22 22 22 21 21 20 19 18 16 14 12 11 10 8 7 7 6 7 7 8 10 11 13 14 15 15 14 13 12 11 10 9 8 8 8 8 9 10 10 11 12 13 14 16 17 18
8 10 10 11 11 11 12 12 13 13 13 14 14 14 14 14 14 14 14 14 14 14 14 15 16 16 17 19 21 22 22 22 22 21 21 21 22 23 23 23 22 22 21 21 21 20 19 18 17 16 14 12 11 10 9 8 8 8 10 10 12 14 15 16 16 15 14 13 12 10 10 10 10 10 10 10 11 11 12 14 15 16 18 19 21 22
10 11 11 12 12 12 13 14 14 14 14 15 15 15 16 15 15 15 16 16 16 16 16 17 18 18 19 21 22 23 23 22 21 20 20 20 20 22 22 22 22 21 21 21 20 20 20 18 18 16 15 14 12 12 10 10 10 11 12 13 14 16 16 16 16 15 14 12 12 11 10 10 10 11 12 12 13 14 16 17 19 21 22 24 26 27
12 12 12 13 13 14 14 14 15 15 16 16 16 16 16 16 16 16 17 17 17 18 18 19 20 20 21 23 24 24 24 23 22 20 19 19 20 21 22 22 21 21 20 20 20 20 19 19 18 17 16 15 14 13 12 12 13 13 14 15 16 17 18 17 16 16 14 13 12 12 11 12 12 13 14 15 16 18 20 21 23 24 26 28 30 32
13 14 14 14 15 16 16 16 16 16 16 17 17 17 17 17 18 18 18 18 19 20 20 21 22 23 23 24 24 24 24 23 22 20 19 18 19 20 21 21 20 20 20 20 20 20 19 18 18 17 16 16 15 15 15 15 15 16 16 17 18 18 19 18 18 16 15 14 14 13 13 13 14 15 16 18 19 20 22 24 25 27 30 33 36 39
15 15 15 16 16 17 18 18 18 18 18 18 18 19 18 19 19 20 20 20 21 21 22 23 24 24 25 26 26 25 24 23 22 21 19 18 18 19 20 20 20 19 19 19 19 19 18 18 18 18 17 17 17 17 17 17 18 18 18 18 19 20 20 20 19 18 17 16 16 15 15 16 16 17 18 20 21 22 24 26 29 32 35 39 42 45
16 17 17 18 18 18 19 20 20 20 20 20 20 21 21 21 21 22 22 22 23 23 24 24 24 26 26 26 25 24 24 24 22 21 20 18 18 18 19 19 19 18 18 18 18 18 18 18 18 18 18 19 20 20 20 20 20 20 20 20 20 21 21 21 21 21 20 19 19 18 18 18 19 20 21 22 24 26 28 31 35 38 42 44 48 51
18 18 19 20 20 21 21 22 22 22 22 22 22 22 23 23 23 24 24 24 24 24 25 25 26 25 25 24 24 24 24 24 24 22 21 19 18 18 19 19 19 18 17 17 17 17 17 18 18 19 20 21 22 22 23 23 23 23 22 22 22 22 22 22 22 23 23 22 22 22 22 23 24 24 26 27 29 31 34 37 40 43 46 48 51 54
20 20 21 22 22 23 23 24 24 24 24 24 24 24 24 24 24 25 26 26 26 26 26 25 24 24 24 24 24 24 25 26 24 24 22 20 18 18 19 19 18 18 17 17 17 17 18 18 19 20 21 22 24 24 26 26 26 26 26 24 24 24 23 23 23 24 24 24 24 26 26 26 27 28 29 31 33 36 38 41 44 46 49 52 54 55
22 23 24 24 24 24 24 24 24 24 24 24 24 24 25 25 26 26 26 26 26 26 26 25 24 24 24 24 24 24 25 26 25 24 22 21 19 19 19 19 18 18 17 16 17 17 18 18 19 20 21 23 24 26 27 28 29 29 29 28 27 26 26 24 24 24 24 24 26 26 27 28 29 30 32 34 36 39 42 44 47 50 53 55 57 58
24 25 26 26 26 26 26 26 26 26 26 26 26 26 26 26 26 26 26 26 26 26 26 25 24 24 24 23 24 24 25 26 26 24 23 22 20 19 19 19 18 18 17 16 16 17 17 17 18 19 20 22 24 26 27 29 30 32 33 32 32 31 30 29 28 27 26 26 27 27 28 29 30 32 34 36 39 42 46 49 52 55 58 60 61 61
26 26 26 26 26 26 26 26 26 26 27 27 27 27 27 28 28 28 27 27 27 27 26 26 25 24 24 23 23 24 26 26 26 24 23 22 21 20 19 19 19 18 18 16 15 15 16 16 17 18 18 20 22 24 26 28 31 33 35 36 36 36 36 35 34 33 32 32 32 32 32 33 34 36 38 41 44 48 51 54 58 60 63 64 64 63
27 27 27 26 26 26 26 26 27 28 28 29 29 29 30 30 30 30 29 29 28 28 27 26 26 26 24 24 24 24 26 28 26 24 23 22 21 20 19 20 19 19 18 16 14 13 13 14 15 16 16 17 18 20 23 26 29 33 36 38 39 40 41 42 41 40 40 40 39 39 40 40 42 43 45 48 51 54 57 60 63 66 67 66 65 64
27 27 26 26 26 26 27 28 28 29 30 31 31 32 32 32 32 32 31 30 30 30 29 28 28 27 26 26 25 26 27 28 27 25 23 22 21 20 20 20 20 20 19 17 14 12 10 10 12 13 14 15 16 18 20 24 28 32 35 37 40 42 44 45 46 46 46 46 46 46 47 48 49 51 52 55 57 60 62 65 67 68 68 66 65 64
26 26 26 26 26 27 27 28 29 30 32 32 33 34 34 34 34 33 32 32 32 32 31 30 30 29 29 28 27 27 27 28 28 26 24 23 22 21 20 20 20 20 19 18 16 13 10 8 8 10 12 13 15 17 20 23 27 31 34 37 40 42 45 47 49 50 50 50 51 52 52 54 55 56 58 60 62 64 66 67 68 68 67 66 65 64
25 25 25 26 26 26 27 28 30 31 33 34 34 35 35 35 35 34 34 34 33 33 33 32 32 31 31 30 29 28 28 28 28 26 24 24 23 22 21 21 20 20 19 19 18 16 12 9 8 8 10 12 14 16 20 24 28 31 34 38 40 43 46 48 50 51 52 52 53 54 56 57 58 60 62 63 65 66 67 67 67 66 66 66 65 64
24 24 24 24 25 26 27 28 30 32 34 35 36 36 36 36 35 35 35 35 35 35 34 34 33 32 32 31 30 29 29 29 28 27 26 24 24 22 21 21 21 20 19 18 18 16 15 12 10 9 10 11 14 17 21 26 29 33 36 39 42 44 47 50 51 52 53 54 55 56 58 59 60 62 63 64 65 66 65 64 64 64 64 65 64 64
24 24 23 24 24 25 26 28 30 33 34 36 36 36 36 36 36 36 36 36 36 36 35 34 34 33 32 30 30 29 29 29 29 28 27 26 24 23 22 22 21 20 19 18 17 16 15 13 12 12 11 12 15 19 24 28 32 35 39 42 44 46 48 51 52 53 54 54 56 57 58 60 61 62 63 64 63 62 60 58 57 57 58 60 60 60
24 23 23 23 24 24 26 28 31 33 36 36 37 37 37 37 37 37 37 37 37 36 35 34 34 33 32 31 30 30 30 30 30 30 29 28 26 24 23 22 22 21 20 18 17 16 15 15 15 16 16 16 18 21 26 30 34 37 40 44 46 48 50 52 53 54 54 55 56 57 58 60 61 62 62 60 58 55 51 48 46 45 46 48 50 52
24 23 23 23 24 24 26 29 32 34 36 38 38 38 38 38 38 38 38 38 37 36 36 35 34 34 34 33 32 32 31 32 32 32 31 29 28 26 24 23 22 22 21 20 19 18 18 17 18 19 22 22 23 24 27 32 36 39 42 45 47 49 51 53 54 56 56 56 57 58 60 60 60 60 58 54 49 43 38 33 31 30 31 34 37 40
23 23 23 23 24 26 28 30 33 36 38 39 39 40 40 40 40 40 40 39 38 37 36 36 35 35 35 35 34 33 33 33 33 33 32 31 29 27 25 24 23 23 24 23 22 22 22 22 22 23 25 27 28 30 31 33 36 40 43 45 47 49 51 54 56 57 58 58 58 60 60 60 58 54 50 43 36 29 23 20 18 19 20 22 24 28
22 22 22 23 24 26 29 32 35 37 39 40 40 40 40 41 40 40 40 39 38 37 37 36 36 37 36 36 36 35 34 34 34 34 33 31 29 27 26 24 24 24 24 26 26 27 28 28 28 28 29 30 32 33 35 37 39 42 43 44 46 49 52 54 57 58 60 60 60 60 58 56 52 46 38 30 22 16 12 11 12 13 14 16 18 22
22 22 23 24 26 28 32 35 38 40 41 42 42 42 42 42 42 41 40 40 39 38 38 38 38 37 37 37 36 36 35 35 34 33 32 30 28 26 25 24 24 24 24 27 29 31 33 34 34 35 35 34 34 34 36 40 42 44 44 44 45 48 51 55 58 60 61 61 60 58 54 49 42 35 26 18 13 10 9 10 11 12 14 15 17 18
21 22 24 26 28 31 34 38 40 42 42 43 43 43 43 42 42 42 40 40 40 39 39 38 38 38 37 37 36 36 35 33 32 30 28 27 26 24 24 23 23 24 25 28 30 33 36 37 38 39 40 39 38 38 38 42 44 47 48 47 47 48 50 54 58 60 62 60 58 54 48 40 32 24 15 11 10 10 10 12 13 14 16 18 19 20
22 23 25 27 30 34 38 40 42 44 44 45 45 44 44 43 42 42 41 40 40 40 40 39 38 38 37 36 36 34 33 31 29 26 24 24 23 23 23 23 24 25 26 29 32 35 38 39 40 42 42 42 41 41 42 44 47 50 52 52 51 50 51 55 58 60 60 58 54 48 40 31 22 15 10 10 10 11 13 14 16 18 21 23 24 26
23 25 27 30 34 38 42 43 44 46 46 46 46 45 44 43 42 42 42 42 41 40 40 39 38 37 36 35 34 32 30 28 26 24 22 22 22 22 23 24 26 28 30 32 34 36 39 41 42 43 44 44 44 44 44 46 48 52 54 56 55 54 53 55 57 58 57 52 46 40 32 24 16 11 10 11 12 14 15 17 20 24 28 31 34 36
24 26 29 33 38 42 44 46 47 48 48 48 47 46 45 44 43 43 43 42 42 42 40 40 38 37 35 34 32 30 28 26 24 23 21 21 22 23 24 26 29 32 34 35 36 38 40 42 44 45 46 47 48 48 48 48 50 52 56 58 58 58 56 56 55 54 52 45 38 30 24 18 13 11 11 12 14 15 17 20 24 30 37 42 46 49
26 28 32 36 40 44 47 49 50 50 50 49 48 47 46 45 45 44 44 44 44 43 42 40 39 37 36 33 31 28 26 24 22 22 21 21 22 24 26 29 32 35 38 39 40 41 42 43 45 46 48 49 50 50 51 52 53 54 56 59 60 61 60 58 54 50 44 35 28 22 18 14 12 12 12 13 15 16 18 22 28 36 46 54 60 65
26 30 34 39 43 47 49 50 51 51 51 50 49 48 47 47 46 46 46 46 45 44 43 42 40 38 36 33 30 26 24 21 20 20 21 22 24 27 30 33 36 38 40 43 44 45 45 46 46 48 49 50 51 52 54 55 56 56 58 58 60 60 59 56 52 45 37 28 22 17 15 14 14 14 13 14 15 17 19 24 30 40 51 62 70 76
29 33 38 42 46 49 51 52 52 52 52 51 50 50 49 48 48 48 48 47 46 46 44 42 40 39 36 33 28 24 21 19 18 18 20 23 26 30 33 36 39 41 43 45 47 48 49 49 50 50 51 51 52 53 55 57 58 58 58 58 58 57 54 50 45 39 32 24 20 18 17 17 17 16 14 14 15 17 19 24 30 39 50 60 68 74
32 36 40 44 48 50 52 52 53 52 52 52 51 51 50 50 50 49 49 48 48 47 45 43 42 40 37 33 28 24 20 17 17 18 20 24 28 32 36 39 42 43 46 47 48 49 50 50 51 52 53 53 53 53 54 57 60 60 60 58 57 54 49 42 37 32 27 24 22 22 21 22 21 19 16 15 16 17 19 23 28 36 44 52 58 64
35 39 42 46 49 51 52 53 53 53 53 52 52 52 52 51 51 51 50 50 49 48 46 44 42 40 37 32 28 24 20 18 18 20 23 26 30 34 38 40 43 44 46 48 49 49 49 50 51 52 54 55 55 55 55 57 59 60 61 59 56 51 44 37 31 28 26 25 24 25 26 26 24 22 19 17 17 18 19 23 27 33 39 45 50 55
36 40 43 46 49 51 52 53 53 53 53 53 53 53 53 52 52 52 52 51 50 48 46 44 42 38 35 30 26 23 20 20 21 24 27 30 33 36 40 42 44 45 46 47 48 47 47 47 48 50 54 56 57 58 58 59 60 61 61 60 56 50 42 34 29 27 26 26 26 26 27 28 27 25 23 20 19 19 20 22 26 30 35 40 45 50
36 40 44 46 49 51 52 53 53 54 54 54 54 54 54 54 54 53 53 52 51 49 47 44 40 37 33 28 24 21 20 22 24 28 32 34 36 39 42 43 44 45 45 46 45 45 45 45 46 49 53 57 60 62 63 63 64 63 61 59 55 50 42 35 30 28 27 27 27 27 27 27 26 25 24 22 22 22 22 23 24 27 32 38 42 47
38 40 44 47 50 52 53 54 54 54 54 54 54 54 55 55 54 54 54 53 51 49 47 43 40 36 31 26 23 22 22 24 28 32 36 38 40 42 44 45 46 46 46 46 45 45 45 45 46 47 51 57 62 66 69 70 70 67 63 58 53 48 42 37 32 28 27 27 27 27 27 26 26 24 24 24 24 24 24 24 25 27 31 36 41 45
Wind_Speed
39 40 40 40 39 39 39 40 40 40 39 39 39 38 38 37 36 35 34 33 33 32 32 32 33 33 33 33 33 33 33 34 34 34 34 34 34 35 35 35 35 36 36 36 36 36 36 37 37 37 37 37 38 38 38 38 38 37 37 37 36 37 37 38 39 39 40 41 41 42 43 43 44 44 44 44 44 43 41 40 40 39 39 39 39 39
40 39 39 39 39 39 39 39 39 39 38 38 38 37 37 36 35 35 34 33 33 33 32 33 33 33 33 33 34 34 34 35 35 35 35 35 35 35 36 36 36 36 36 37 37 37 37 37 37 37 37 37 38 38 38 38 37 37 37 37 37 37 38 39 40 40 41 42 42 43 43 44 44 45 44 44 43 42 41 40 39 39 39 39 39 40
39 39 39 39 38 38 38 38 38 38 38 37 37 37 36 36 35 35 34 33 33 33 33 33 33 33 33 34 34 35 35 36 36 36 36 36 36 36 36 36 37 37 37 37 37 37 37 37 37 37 38 38 38 38 38 37 37 37 37 37 38 38 39 40 41 41 42 42 43 44 44 44 45 45 44 44 42 41 40 40 39 39 39 39 40 40
39 39 39 38 38 38 38 38 38 38 37 37 37 37 36 36 35 35 34 33 33 33 34 34 34 34 34 34 35 36 36 36 37 37 37 37 37 37 37 37 37 37 37 37 37 37 37 37 37 38 38 38 38 38 37 37 37 37 37 38 39 40 40 41 42 43 43 43 44 44 45 45 45 45 44 43 42 41 40 40 39 39 40 40 40 41
38 38 38 38 37 37 37 37 37 37 37 37 36 36 36 36 35 35 34 34 34 34 34 34 34 35 35 35 35 36 37 37 37 38 38 38 38 38 38 38 38 37 37 37 37 37 37 37 38 38 38 38 38 38 37 37 37 37 38 39 40 41 42 43 43 44 44 44 45 45 46 46 46 45 45 43 42 41 41 40 40 40 40 41 41 42
38 38 37 37 37 37 37 37 37 37 37 36 36 36 36 35 35 35 35 35 34 35 35 35 35 35 35 36 36 36 37 37 38 38 38 38 38 38 38 38 38 38 38 38 38 38 38 38 38 38 38 38 38 37 37 37 38 38 38 39 40 42 43 44 44 45 45 46 46 46 47 47 47 46 45 44 43 42 41 41 41 41 41 42 42 43
37 37 37 37 37 37 37 37 37 37 37 36 36 36 36 36 35 35 35 35 35 35 35 35 35 36 36 36 37 37 37 37 37 38 38 38 38 39 39 39 39 38 38 38 38 38 38 38 38 38 38 37 37 37 37 38 38 38 39 40 41 42 43 44 45 46 46 47 47 47 48 48 47 47 45 44 43 43 42 42 42 42 43 43 44 44
37 37 37 36 36 37 37 37 37 37 37 36 36 36 36 36 36 36 36 36 36 36 36 36 36 36 36 36 37 37 37 37 37 38 38 38 39 39 39 39 39 39 39 39 38 38 38 38 38 38 37 37 37 38 38 38 38 39 39 40 41 43 44 45 46 46 47 48 48 49 49 49 48 47 46 45 44 44 44 43 43 44 44 44 45 46
36 36 36 36 36 36 36 37 37 37 37 36 36 36 36 36 36 36 36 36 36 36 36 36 36 36 36 36 37 37 37 37 37 38 38 38 39 39 39 39 39 39 39 39 39 38 38 38 38 38 37 37 37 38 38 38 39 39 40 41 42 43 44 45 46 47 48 49 49 50 50 49 49 48 47 46 45 45 45 45 45 45 45 46 46 47
36 36 36 36 36 36 36 36 37 37 37 37 37 37 37 36 36 36 36 36 36 36 36 36 35 35 36 36 37 37 38 38 38 38 38 39 39 39 39 39 39 39 39 39 39 38 38 38 38 38 37 38 38 38 38 39 39 40 40 41 42 43 44 46 47 48 49 50 50 50 50 50 49 48 48 47 46 46 46 46 46 46 47 47 48 48
35 35 35 36 36 36 36 36 36 36 36 36 37 37 37 37 37 36 35 35 35 35 36 35 35 35 35 36 36 37 38 38 38 39 39 39 39 39 39 39 39 39 39 39 38 38 38 38 38 38 38 38 38 38 39 39 40 40 41 41 42 44 45 47 48 49 50 51 51 51 51 51 50 49 48 48 47 47 47 47 48 48 49 49 49 50
35 35 35 35 35 35 35 36 36 36 36 36 37 37 37 38 37 37 36 35 35 35 34 34 34 35 35 36 36 37 37 38 38 39 39 39 39 39 39 39 39 39 39 38 38 38 38 38 38 38 38 38 38 39 39 40 40 41 41 42 43 44 46 47 49 50 51 52 52 52 52 51 51 50 49 49 49 48 48 49 49 50 50 51 51 52
35 35 35 35 35 35 35 35 36 36 36 36 36 36 37 37 37 37 36 36 35 35 34 34 33 34 34 36 36 37 38 38 38 39 39 39 39 39 39 39 39 39 39 38 38 38 38 38 38 38 38 39 39 39 40 40 40 41 42 43 44 45 46 48 49 51 51 52 52 52 52 52 51 51 50 50 50 50 50 50 51 51 52 52 53 53
34 34 34 34 34 35 35 35 35 35 36 36 36 36 36 36 36 36 36 36 35 35 34 34 33 33 34 35 37 38 38 39 39 38 38 38 38 38 38 38 38 38 38 38 38 38 38 38 39 39 39 39 39 40 40 40 41 42 43 44 45 46 47 48 50 51 52 52 53 53 53 52 52 51 51 51 51 51 51 51 52 53 53 54 54 55
34 34 34 34 34 34 35 35 35 35 35 36 36 36 36 36 36 36 36 35 35 35 34 34 33 33 34 35 37 38 39 39 39 39 38 37 37 38 38 38 38 38 37 37 37 37 38 38 39 39 39 39 40 40 40 41 41 42 43 44 45 46 48 49 50 51 51 52 52 53 53 53 52 52 52 52 52 52 52 53 53 54 55 55 56 56
33 33 33 33 33 34 34 34 34 35 35 35 35 35 35 35 35 35 35 35 35 35 34 34 33 33 33 34 36 38 39 40 40 39 38 37 36 37 38 38 38 37 37 37 37 37 38 38 39 39 39 39 40 40 41 41 42 43 44 45 46 47 48 49 50 50 51 51 52 52 53 53 53 53 53 53 53 53 54 54 55 55 56 56 57 57
32 32 32 32 32 33 33 34 34 34 34 34 35 35 35 35 35 35 35 35 35 35 35 34 34 33 32 33 35 37 39 40 40 39 38 36 35 36 37 37 37 37 37 36 37 37 38 38 38 39 39 39 40 40 41 41 42 43 44 45 46 47 48 49 49 50 50 51 51 52 52 53 53 53 53 54 54 55 55 56 56 57 57 58 58 58
31 31 31 31 32 32 32 33 33 34 34 34 34 34 34 34 34 35 35 35 35 35 35 35 34 34 33 33 33 35 38 39 40 39 38 36 35 35 36 37 37 37 37 36 36 37 37 38 38 39 39 39 40 40 41 41 42 43 44 45 46 47 48 48 48 49 49 50 50 51 52 52 53 53 54 54 55 55 56 56 57 58 58 58 59 59
31 31 31 31 31 31 32 32 32 33 33 33 33 33 33 34 34 34 35 35 35 36 35 35 35 34 33 33 33 35 37 38 39 39 38 37 35 35 36 36 37 37 37 36 36 37 38 38 38 38 39 39 39 40 41 42 42 43 44 45 46 46 47 47 47 48 48 49 50 50 51 52 52 53 53 54 55 55 56 57 57 58 58 59 59 59
30 30 30 30 30 31 31 31 32 32 32 33 33 33 33 33 34 34 35 35 35 36 35 35 35 34 34 33 33 34 36 37 38 38 38 37 35 35 36 36 37 37 36 36 37 37 38 38 38 38 38 39 39 40 41 42 42 43 44 45 45 46 46 46 47 47 48 48 49 50 50 51 52 52 53 54 54 55 56 57 57 58 58 58 58 58
29 29 30 30 30 30 30 31 31 32 32 32 33 33 33 33 34 34 34 35 35 35 35 35 35 34 33 33 33 33 35 36 37 38 38 37 36 35 36 36 37 37 36 36 36 37 38 38 38 38 38 39 39 40 41 42 42 43 44 44 44 45 45 45 46 47 47 48 49 49 50 51 51 52 53 53 54 55 56 57 57 57 58 57 57 57
28 29 29 30 30 30 30 30 31 32 32 32 33 33 33 34 34 34 34 35 35 35 35 34 34 33 33 32 32 33 34 35 37 38 38 37 36 35 36 37 37 37 37 36 37 37 37 38 38 38 38 39 39 40 41 42 42 43 43 43 44 44 44 45 45 46 47 47 48 49 50 50 51 52 53 54 54 55 56 57 57 57 57 56 56 56
28 28 28 29 29 29 30 30 31 31 32 32 33 33 34 34 34 34 34 35 35 35 34 34 33 32 32 31 31 32 33 35 36 38 39 38 37 36 36 37 37 37 37 37 37 37 38 38 38 38 38 39 40 40 41 41 42 42 43 43 43 43 44 44 45 46 46 47 48 49 50 50 51 52 53 54 55 55 56 56 56 56 55 55 55 55
28 28 28 28 29 29 30 30 31 31 32 33 33 33 34 34 34 34 34 34 35 34 34 33 32 31 31 30 31 31 32 34 36 38 39 39 38 38 37 38 38 38 38 37 38 38 38 38 38 38 39 39 40 40 41 41 42 42 42 42 43 43 44 44 45 46 46 47 48 49 50 51 52 53 54 54 55 55 55 55 55 55 55 55 55 56
28 27 28 28 28 29 29 30 31 31 32 33 33 33 33 34 33 34 34 34 34 34 33 32 31 30 30 30 30 30 32 34 36 38 39 40 39 38 38 38 39 39 38 38 38 39 39 39 38 39 39 39 40 40 41 41 41 42 42 42 43 43 44 44 45 46 47 48 48 50 51 52 52 53 54 54 54 55 55 55 55 55 55 55 56 56
27 27 27 28 28 29 29 30 31 32 32 33 33 33 33 33 33 33 33 33 33 33 32 31 31 30 30 30 30 30 31 33 35 37 39 39 39 38 38 38 39 39 39 39 39 39 39 39 39 39 39 39 40 40 40 41 41 41 42 42 43 43 44 45 45 46 47 48 49 50 51 52 52 53 54 54 55 55 55 55 55 55 55 55 56 56
27 27 27 28 28 29 30 30 31 32 32 33 33 33 33 33 32 32 32 32 32 32 32 31 31 30 30 30 29 29 30 32 34 36 38 39 38 38 38 38 39 39 39 39 39 39 39 39 39 39 39 39 40 40 40 40 40 41 41 42 42 43 44 45 46 47 48 48 49 50 51 52 53 53 54 54 55 55 55 55 55 55 55 55 56 56
27 27 28 28 29 29 30 31 31 32 33 33 34 34 33 33 32 32 32 32 32 32 32 32 31 31 30 30 29 29 30 31 33 36 37 38 38 37 37 38 38 39 39 40 39 39 39 40 40 40 40 40 40 40 40 40 41 41 41 42 43 43 44 45 46 47 48 49 50 50 51 52 53 53 54 54 55 55 55 54 54 54 54 54 54 54
27 27 28 29 29 30 31 31 32 32 33 33 34 34 33 33 32 32 32 32 32 32 32 32 32 31 31 30 30 29 29 30 33 35 36 37 37 37 37 37 38 39 40 41 41 40 40 40 40 41 41 41 41 41 41 41 41 41 42 42 43 43 44 45 46 47 47 48 49 50 51 52 53 53 54 54 54 54 53 53 53 52 52 53 53 53
27 27 28 29 30 30 31 32 32 33 33 33 33 33 33 33 32 32 32 32 32 31 31 31 31 31 31 31 30 29 28 29 32 35 36 36 36 36 37 37 38 39 40 42 42 42 41 40 41 42 43 43 43 42 42 42 42 42 43 43 43 44 44 45 46 47 47 48 49 50 51 51 52 52 53 53 53 52 52 51 51 50 51 51 51 51
27 27 28 29 30 31 31 32 32 32 33 33 32 32 32 32 32 32 32 32 31 31 31 31 30 30 30 30 29 28 27 29 32 34 35 36 36 37 37 38 38 39 41 42 44 44 44 43 42 43 44 44 44 44 44 43 43 43 44 44 44 44 45 46 46 47 48 48 49 50 50 51 51 51 52 51 51 51 50 49 49 48 49 49 50 50
27 27 28 29 30 31 31 32 32 32 32 32 32 31 31 31 31 31 31 31 31 30 30 30 29 29 29 29 28 28 28 29 32 34 35 36 36 37 38 39 39 40 41 43 44 46 47 46 45 44 44 45 45 45 45 44 44 44 44 45 45 45 45 46 47 48 48 49 49 49 50 50 50 51 50 50 49 49 48 47 47 47 47 48 48 49
27 28 28 29 30 31 31 32 32 32 32 31 31 31 31 31 30 30 30 30 30 29 29 28 28 28 28 28 28 28 29 30 32 34 35 36 37 38 39 40 41 42 42 43 45 46 47 48 47 47 46 46 46 46 46 45 45 45 45 45 46 46 46 47 47 48 48 49 49 49 50 50 50 49 49 48 48 47 46 45 45 45 45 46 47 47
27 28 29 29 30 31 31 32 32 32 31 31 31 30 30 30 30 30 29 29 29 28 28 27 27 27 27 28 28 28 29 31 33 35 36 37 39 40 40 41 42 43 44 44 45 46 47 48 48 48 48 47 46 46 46 46 46 46 46 46 46 47 47 47 48 48 49 49 49 49 49 49 49 48 47 47 46 45 45 44 44 44 43 44 44 45
27 28 29 30 30 31 31 31 31 31 31 31 30 30 30 29 29 29 28 28 28 27 27 27 27 27 28 29 29 30 30 32 34 35 37 38 40 41 41 42 43 44 45 45 46 47 47 47 48 48 48 48 47 46 45 45 46 46 46 46 47 47 47 48 48 48 49 49 49 48 48 48 47 47 46 45 44 44 44 43 43 42 42 41 41 42
28 29 30 30 31 31 31 31 31 31 30 30 30 29 29 29 28 28 27 27 27 27 26 27 27 28 29 30 30 31 32 33 34 36 37 39 40 41 42 42 43 44 45 46 46 47 47 48 48 48 48 48 47 47 46 45 45 46 46 46 47 47 47 47 47 48 48 48 48 48 47 46 46 45 44 43 43 43 43 42 42 41 40 39 39 39
28 29 30 30 31 31 31 31 31 30 30 29 29 29 28 28 27 27 26 26 26 26 26 27 27 28 29 30 31 32 33 34 35 36 37 39 40 41 42 43 43 44 44 45 46 47 47 47 47 47 47 47 47 47 47 46 46 45 46 46 46 47 47 47 47 47 47 47 47 46 45 44 43 43 42 42 42 42 42 41 40 39 38 38 37 37
28 29 30 30 30 30 30 30 30 29 29 29 28 28 27 27 26 26 25 25 26 26 26 27 27 28 29 31 32 33 34 35 35 36 37 38 39 40 41 42 42 43 43 44 45 45 46 46 47 47 46 46 46 46 46 46 46 46 46 46 46 46 46 46 46 46 45 45 45 44 43 42 41 41 40 40 41 41 41 40 39 38 37 36 35 35
28 29 29 30 30 30 30 29 29 29 28 28 28 27 27 26 25 25 25 25 26 26 27 27 28 28 29 30 31 33 33 34 35 36 36 37 38 39 40 41 41 42 42 43 43 44 44 45 45 46 46 46 46 45 45 45 46 46 47 47 46 45 45 44 44 44 44 43 43 42 41 40 39 39 39 39 40 40 40 39 38 37 36 35 35 34
28 28 29 29 29 29 29 28 28 28 28 27 27 27 26 25 25 25 25 26 26 27 27 28 28 29 29 30 31 32 33 34 35 35 36 37 38 38 39 40 40 41 41 41 42 42 43 43 44 44 45 45 46 45 45 45 45 46 47 47 46 45 44 43 43 42 42 41 40 40 39 38 37 37 38 38 39 39 39 38 37 36 35 34 34 35
27 28 28 28 29 28 28 28 28 27 27 27 26 26 26 25 25 25 25 26 27 27 28 28 29 29 30 31 32 32 33 34 35 35 36 36 37 38 38 39 39 40 40 40 41 41 41 42 43 43 44 44 45 45 45 45 45 45 46 46 46 45 44 42 41 40 40 40 39 38 37 37 36 36 36 37 38 38 37 37 36 36 35 34 34 35
27 27 28 28 28 28 28 28 27 27 27 26 26 26 26 25 25 25 26 26 27 28 29 29 30 30 31 32 32 33 34 34 35 35 36 36 37 37 38 38 38 39 39 40 40 40 41 41 42 43 43 44 45 45 45 45 44 44 44 44 45 45 44 42 40 39 38 38 37 36 36 36 35 35 36 36 37 37 36 36 36 35 34 34 34 34
27 27 27 27 27 27 27 27 27 26 26 26 26 26 26 26 26 26 26 27 27 28 29 30 31 32 32 33 33 33 34 34 35 35 36 36 36 37 37 37 38 38 39 39 40 40 40 40 41 42 42 43 44 45 45 45 44 43 43 43 43 43 43 41 39 38 37 36 35 35 35 35 35 35 35 36 36 36 36 36 35 34 33 33 33 33
26 26 27 27 27 27 27 26 26 26 26 26 26 26 26 27 27 27 27 28 28 29 30 31 32 33 33 34 34 34 34 34 34 35 35 36 36 36 36 37 37 38 38 39 39 40 40 40 41 41 42 43 43 44 44 44 44 43 42 41 41 41 41 40 39 38 36 35 34 34 34 35 35 36 36 35 35 36 36 36 35 33 32 32 32 33
26 26 26 26 26 26 26 26 26 26 26 26 26 26 26 27 27 27 28 28 29 30 31 32 33 33 34 34 35 35 35 34 34 34 35 35 35 35 36 36 37 37 38 38 39 39 40 40 41 41 42 42 43 43 43 43 43 42 41 40 39 39 39 38 38 37 37 35 34 34 35 36 36 37 36 36 35 35 36 35 34 33 32 32 32 33
25 26 26 26 25 25 25 26 26 26 26 26 26 26 26 27 27 28 28 29 30 31 32 33 33 34 35 35 35 35 35 35 34 34 34 34 34 35 35 35 36 37 37 38 38 39 39 40 41 41 42 42 42 42 42 42 42 41 40 39 39 38 38 37 37 37 37 36 36 36 37 37 38 38 37 36 36 36 35 35 34 33 32 32 33 34
25 25 25 25 25 25 25 25 26 26 26 26 26 26 27 27 28 28 29 30 30 31 32 33 34 34 35 35 36 36 36 35 35 34 34 34 34 34 34 35 35 36 36 37 38 38 39 40 40 41 42 43 43 42 41 41 40 40 40 39 39 38 38 37 37 37 37 37 38 38 39 39 39 39 38 37 36 36 35 34 33 32 32 32 33 34
25 25 25 24 25 25 25 26 26 26 26 26 26 27 27 28 28 28 29 30 31 31 32 33 33 34 34 35 35 35 35 35 35 34 34 34 34 34 34 35 35 36 36 37 37 38 38 39 40 41 42 43 43 43 42 40 39 39 39 39 39 39 38 37 37 37 37 38 39 39 40 40 40 40 39 38 37 36 35 34 33 32 32 33 34 35
24 24 24 24 24 25 25 26 26 26 27 27 27 27 27 28 28 29 29 30 31 31 32 33 33 34 34 34 34 34 34 34 34 34 34 34 34 34 34 35 35 36 36 37 37 38 38 39 40 41 42 43 44 43 42 41 39 39 38 39 39 39 38 37 37 37 38 39 40 40 40 39 39 39 39 39 38 37 36 34 33 32 32 34 35 36
24 24 24 24 24 24 25 25 26 26 27 27 27 27 27 28 28 29 29 30 31 31 32 33 33 34 34 34 34 34 33 33 33 33 33 34 34 35 35 36 36 37 37 37 38 38 39 39 40 41 42 42 43 43 42 41 39 38 38 38 38 38 38 38 38 38 39 39 40 40 40 39 39 39 39 40 39 39 37 35 34 32 33 34 36 37
24 24 24 24 24 24 25 25 26 26 27 27 27 27 27 27 28 28 29 30 30 31 32 32 33 33 33 33 33 33 33 33 33 33 33 34 34 35 35 36 37 38 38 39 39 39 40 40 41 41 42 42 41 41 40 39 38 38 38 37 37 37 37 38 38 38 39 39 40 40 40 39 39 39 39 40 40 40 39 37 35 34 33 35 37 38
Wind_Direction
285 285 286 287 288 289 289 289 290 290 291 291 291 291 291 291 290 290 289 289 288 288 288 288 288 288 289 289 289 290 290 290 290 290 290 290 290 290 290 290 290 289 289 289 288 288 288 287 287 287 287 286 286 286 286 286 286 285 285 285 286 287 288 289 290 291 293 294 296 297 298 299 300 300 300 300 300 299 299 299 300 301 303 304 305 306
285 286 286 287 288 289 289 289 289 289 290 290 290 290 289 289 289 288 288 288 288 288 288 288 288 289 289 290 290 291 291 291 291 291 291 291 291 291 291 291 290 290 289 289 289 288 288 288 287 287 287 287 286 286 286 286 285 285 285 285 286 287 288 289 290 292 293 295 296 297 298 299 299 300 299 299 298 298 298 299 299 301 302 303 304 305
286 286 287 288 288 289 289 289 289 289 289 289 288 288 288 287 287 287 287 287 287 287 287 288 288 289 290 290 291 291 291 291 291 291 291 291 291 291 291 290 290 290 289 289 288 288 288 288 287 287 287 287 287 286 286 285 285 285 285 285 286 287 288 289 291 292 293 295 296 297 298 299 299 299 298 298 297 297 297 297 299 300 301 303 303 304
286 287 288 288 289 289 289 289 289 288 288 288 287 287 286 286 286 286 286 286 287 287 287 288 288 289 289 290 290 291 291 291 291 291 291 291 291 291 291 290 290 289 289 289 288 288 288 288 287 287 287 287 286 286 285 285 284 284 284 285 286 287 288 290 291 292 294 295 296 297 298 298 298 297 297 296 296 295 296 296 298 299 300 301 302 303
287 287 288 288 289 289 289 289 288 288 288 287 286 286 286 286 286 286 286 286 287 287 287 288 288 289 289 290 290 290 290 290 290 291 291 291 291 291 291 290 290 290 289 289 288 288 288 288 287 287 287 286 286 285 284 284 283 284 284 285 286 288 289 290 292 293 294 295 296 297 297 297 297 296 296 295 294 294 295 296 297 298 299 300 301 301
288 288 289 289 289 289 289 288 288 288 287 287 286 286 286 286 286 286 286 286 286 287 287 288 288 289 289 289 289 289 289 290 290 290 291 291 291 291 291 291 290 290 289 289 289 288 288 288 287 287 286 286 285 284 283 283 283 283 284 286 287 288 290 291 292 294 295 296 296 296 296 296 296 295 295 294 294 294 294 295 296 297 298 299 299 300
289 289 289 289 289 289 289 288 288 287 287 286 286 286 286 286 286 286 286 286 286 287 287 287 288 289 289 289 289 289 289 289 290 291 291 292 292 292 291 291 291 290 290 289 289 289 288 288 287 287 286 285 284 283 282 282 283 284 285 286 287 289 290 291 293 294 294 295 295 295 295 295 295 295 294 294 293 293 293 294 295 296 297 297 298 299
289 290 290 290 290 289 288 288 288 288 287 287 286 286 286 286 286 286 286 287 287 287 287 288 288 289 290 290 290 290 290 290 291 291 292 292 292 292 292 291 291 290 290 289 289 289 288 288 287 286 285 284 283 282 282 282 283 284 285 286 288 289 290 291 292 293 294 294 294 294 294 294 294 294 294 293 293 292 293 293 294 295 295 296 297 297
290 290 290 290 289 289 288 288 288 288 288 287 287 286 286 286 286 286 287 287 288 288 288 289 289 290 290 291 291 291 291 291 292 292 292 292 292 292 291 291 291 290 290 290 289 289 288 288 287 286 285 284 283 282 282 282 283 284 285 286 288 289 290 290 291 292 292 292 293 293 293 294 294 293 293 292 292 291 291 292 293 293 294 294 295 296
290 290 290 290 289 289 288 288 288 288 288 288 288 287 287 286 286 286 286 287 288 288 289 289 290 291 291 291 292 292 292 293 293 293 293 292 292 291 291 291 290 290 290 290 289 289 288 288 287 285 284 283 282 282 282 282 283 284 285 286 287 288 288 289 290 290 291 291 292 292 292 293 293 292 292 291 290 290 290 291 291 292 292 293 294 294
290 290 290 290 290 289 289 288 288 289 288 288 288 288 288 287 287 287 287 287 287 288 289 290 291 292 292 292 292 293 293 293 294 293 293 292 291 291 291 290 290 290 290 290 289 289 288 287 286 285 284 283 282 282 282 282 283 284 285 285 286 287 287 288 288 289 290 290 291 291 292 292 292 291 291 290 289 289 289 290 290 291 292 292 293 293
291 291 290 290 290 290 289 289 289 289 289 288 288 288 288 289 289 289 290 289 289 289 289 290 292 293 294 294 293 293 293 293 293 292 292 291 291 291 291 290 290 290 290 290 290 289 288 287 286 285 284 283 282 282 282 283 283 284 284 285 285 285 286 287 287 288 289 290 290 291 291 291 291 290 290 289 289 289 289 289 290 290 291 292 292 293
291 291 291 291 290 290 290 289 289 289 289 289 289 290 290 290 291 291 291 291 291 290 291 292 293 294 295 295 294 294 293 292 292 291 291 291 290 290 290 290 290 290 290 290 290 289 288 287 286 285 284 283 283 282 282 283 283 283 283 284 284 284 285 286 286 287 288 289 289 290 290 290 290 289 289 289 288 288 289 289 290 290 291 292 293 293
291 291 291 291 291 291 291 290 290 290 290 290 290 290 291 291 292 292 292 292 292 293 293 294 295 296 296 296 295 294 293 292 291 291 290 290 290 290 290 290 290 290 290 290 290 289 288 287 286 285 284 283 282 282 282 282 282 282 283 283 283 284 284 285 286 287 288 288 289 289 289 289 289 289 289 288 288 288 289 289 290 290 291 292 293 294
292 292 292 292 292 292 291 291 291 291 291 291 291 292 292 292 293 293 293 294 294 295 295 296 297 298 298 297 296 295 293 292 291 290 290 290 291 291 291 290 290 290 290 289 289 288 287 286 285 284 283 282 282 282 282 282 282 282 282 283 283 284 284 285 286 286 287 288 288 288 289 289 289 289 288 288 288 289 289 289 290 291 292 293 294 295
292 292 292 292 292 292 292 292 292 292 292 292 293 293 294 294 294 295 295 295 296 296 297 297 298 298 298 297 296 294 293 291 291 290 290 290 291 291 291 290 290 290 289 289 288 287 286 285 284 283 282 282 282 282 282 282 282 282 283 283 283 284 284 285 285 286 286 287 287 288 288 288 288 289 289 289 289 289 290 290 291 292 293 294 295 296
292 292 292 292 292 292 292 292 292 292 293 293 294 294 295 295 296 296 297 297 297 297 298 298 299 298 297 295 294 292 291 290 290 290 290 291 291 290 290 290 290 290 289 289 288 287 286 285 284 283 283 282 282 282 282 283 283 283 283 284 284 284 285 285 285 286 286 286 287 287 287 288 288 288 289 289 289 290 291 292 293 294 294 295 296 297
292 292 293 293 292 292 292 292 292 293 293 294 294 295 296 296 297 298 298 298 299 299 299 299 299 299 298 295 292 290 290 289 290 290 291 291 291 291 290 290 290 290 290 290 289 288 287 286 285 285 284 284 284 284 284 284 284 284 284 285 285 285 285 285 285 285 286 286 286 286 287 287 287 288 288 289 290 291 292 293 294 295 295 296 297 297
293 293 293 293 293 293 293 293 293 293 294 295 296 297 297 298 298 299 300 300 300 300 300 300 300 299 298 296 293 291 289 289 290 290 291 291 291 291 291 291 291 291 292 292 291 290 289 288 288 287 287 287 286 286 286 286 285 285 286 286 286 286 286 286 286 286 286 286 286 286 286 287 287 288 289 289 290 291 292 293 294 295 296 296 297 298
294 294 294 294 294 294 294 294 294 295 296 296 297 298 299 299 300 301 301 302 302 301 301 301 300 299 298 296 294 292 291 290 290 291 291 292 292 292 292 292 292 293 293 293 293 292 291 290 290 290 289 289 288 288 287 287 287 287 287 287 287 287 287 286 286 286 286 286 286 286 286 287 287 288 289 290 290 291 292 293 294 295 296 297 298 298
295 295 295 295 295 295 296 296 296 297 298 299 300 301 301 301 302 302 302 302 302 302 301 301 300 299 298 296 295 293 292 292 292 292 292 293 293 294 294 294 294 295 295 295 294 293 293 292 292 292 291 291 290 290 290 289 289 289 289 288 288 288 287 287 287 286 286 286 286 286 286 287 287 288 288 289 290 291 292 293 295 296 297 298 298 299
296 296 296 297 297 298 298 299 299 300 301 302 303 303 303 304 304 304 303 303 302 302 301 300 300 299 298 297 296 295 295 295 295 295 294 294 295 296 296 296 296 297 297 297 296 295 295 295 295 295 294 294 293 293 292 291 291 291 290 290 289 289 288 288 287 287 287 287 287 287 287 287 287 288 288 289 291 292 293 295 296 297 298 298 298 298
297 298 298 299 299 300 301 302 302 303 304 305 305 305 305 305 305 305 304 304 302 301 301 300 300 299 299 298 298 298 298 298 298 297 297 297 298 298 298 299 299 299 299 299 299 298 298 298 298 298 298 297 296 295 295 294 293 293 292 291 290 290 289 288 288 287 287 287 287 287 287 288 288 289 290 291 293 294 296 297 298 298 298 298 298 298
299 300 301 301 302 303 304 305 305 306 306 307 306 306 306 306 306 306 305 303 302 301 300 300 299 299 299 299 300 301 301 301 301 300 299 299 300 301 302 302 302 302 302 302 302 301 301 301 301 301 301 300 299 298 297 296 295 294 294 293 292 291 290 289 289 289 288 288 288 288 289 289 290 291 293 294 295 297 297 298 298 298 298 298 298 297
302 303 303 304 305 306 307 307 308 308 308 307 307 307 307 307 306 305 304 303 302 301 300 300 300 301 301 301 302 304 304 303 302 302 301 301 301 303 304 304 304 304 304 304 304 304 304 304 304 304 303 302 301 300 300 299 298 297 296 295 293 292 291 291 290 290 289 290 290 290 291 292 293 294 295 296 297 298 298 299 299 299 299 299 298 298
304 305 306 307 308 308 309 309 309 309 309 308 308 307 307 307 306 305 304 303 302 302 302 303 303 303 303 303 304 305 306 305 304 302 301 302 303 305 306 306 305 305 306 306 306 306 306 306 306 306 306 305 304 304 303 302 301 300 299 297 296 295 294 293 292 292 292 292 292 293 293 294 295 296 296 297 298 299 299 300 301 301 301 300 300 300
306 307 308 309 309 310 311 311 311 310 310 309 309 309 308 308 307 306 305 304 304 304 305 305 305 305 305 305 307 308 308 307 305 303 302 303 304 306 307 307 307 307 307 307 307 308 308 309 309 309 308 308 307 307 306 305 304 303 302 301 299 298 297 296 295 295 294 294 294 294 295 295 296 297 298 298 299 300 301 302 303 303 303 303 302 302
307 308 309 310 311 312 312 312 312 312 312 311 311 311 310 309 309 308 307 307 306 307 307 308 308 308 308 309 309 310 311 309 306 303 303 304 306 307 308 308 309 309 309 309 309 309 310 310 311 310 310 310 310 310 310 309 308 307 306 304 303 302 300 299 298 297 296 296 296 296 297 297 298 299 300 301 302 303 304 305 306 306 305 304 304 304
308 309 310 311 312 313 313 313 314 313 313 313 312 312 311 311 310 310 309 309 309 309 310 310 310 311 311 311 312 313 313 310 306 304 305 306 307 309 310 310 311 311 311 310 309 309 310 311 312 312 312 312 312 313 313 312 312 311 309 307 306 305 303 302 301 300 299 299 299 299 299 300 301 302 303 304 305 306 307 308 308 307 306 306 305 304
308 309 311 312 313 314 314 315 315 315 314 313 313 312 311 311 311 311 311 311 311 312 312 312 313 313 313 313 314 314 314 311 308 306 307 308 310 311 311 312 313 313 313 312 311 310 311 312 313 314 314 314 315 315 315 315 314 313 311 310 309 307 306 305 304 303 303 302 302 303 303 304 304 305 306 307 308 309 310 310 309 308 307 306 306 305
308 309 310 312 313 314 314 315 315 315 314 313 312 312 311 311 312 312 312 313 313 314 314 314 314 315 315 315 316 316 315 311 309 309 309 311 312 312 313 314 314 314 314 314 314 313 313 313 314 315 315 316 316 317 317 317 316 315 314 312 311 310 309 308 307 307 306 306 306 306 307 307 307 308 309 310 311 311 311 311 310 309 308 307 306 306
307 309 310 311 312 313 314 314 314 314 313 313 312 312 312 312 312 313 314 314 314 315 315 315 315 315 316 316 316 317 316 313 311 311 312 313 313 314 314 315 315 315 316 316 316 316 316 315 316 316 316 317 318 318 318 318 318 317 316 315 314 313 312 311 310 310 309 309 309 309 309 310 310 311 311 312 312 312 312 312 312 311 310 309 307 306
306 308 309 310 312 313 313 314 314 313 313 312 312 312 312 313 313 314 314 315 315 315 315 316 315 315 315 316 316 317 316 315 314 314 314 315 315 315 316 316 317 317 317 317 317 317 317 317 317 317 317 318 319 320 320 320 319 319 318 317 316 315 314 313 313 312 312 311 311 311 311 312 312 313 313 314 314 314 314 313 313 312 311 310 308 307
306 307 309 310 311 312 313 313 313 312 312 312 312 312 312 313 314 315 315 315 315 315 315 315 315 315 315 316 316 317 317 317 317 316 317 317 317 317 317 318 318 318 318 317 317 317 317 317 318 318 319 319 320 321 321 321 321 320 320 319 318 317 316 315 315 314 313 313 313 313 313 314 314 315 315 316 316 315 315 315 314 313 312 310 309 308
306 307 308 309 310 311 312 312 312 312 312 312 312 313 313 314 314 315 315 314 314 314 314 314 315 316 317 318 318 319 319 319 319 319 319 319 318 318 319 319 319 319 318 318 318 318 318 318 319 320 320 321 321 322 323 322 322 322 321 320 319 318 317 317 316 315 315 315 315 315 316 316 317 317 317 317 317 317 316 316 315 314 313 311 310 309
306 307 308 309 310 310 311 311 311 312 312 312 312 313 313 314 314 314 313 313 313 313 314 315 316 318 319 320 321 321 322 321 321 321 320 320 319 319 319 319 319 319 319 318 318 318 319 319 320 321 321 322 323 323 324 323 323 322 321 320 319 319 318 318 317 317 317 317 317 317 318 318 319 319 319 319 318 317 317 317 316 316 315 313 312 311
306 307 308 308 309 309 310 310 311 311 312 312 312 312 313 313 313 312 311 311 312 313 314 316 319 320 321 322 323 323 323 323 322 322 321 320 320 320 320 319 319 319 319 319 319 319 320 320 321 322 323 323 324 325 325 324 324 323 321 320 320 319 319 319 319 318 318 318 319 319 320 320 320 320 320 319 319 319 318 318 318 318 317 316 314 313
305 306 307 308 308 309 309 310 310 310 311 311 311 311 311 311 311 310 310 310 311 313 316 318 320 322 323 323 324 324 323 323 323 322 321 320 320 319 319 319 319 319 319 319 320 320 321 321 322 323 324 324 325 325 325 325 324 323 321 320 320 320 320 320 320 320 320 320 320 321 321 321 321 321 320 320 320 320 321 321 321 321 320 319 317 315
305 305 306 307 307 308 309 309 310 310 310 310 310 310 310 309 309 308 309 310 312 314 317 319 321 322 323 324 324 323 323 322 322 321 320 319 319 318 318 318 318 319 319 320 320 321 322 323 324 325 326 326 326 325 325 325 324 323 322 321 320 321 321 322 321 321 321 321 321 321 321 321 321 322 322 322 322 323 323 323 324 324 323 321 319 317
304 305 306 306 307 308 308 309 309 309 309 309 309 309 308 307 307 308 309 311 313 315 317 319 321 322 322 323 322 322 321 321 320 320 319 319 318 318 318 318 319 319 320 321 322 323 324 325 325 326 327 327 326 326 326 326 325 324 323 322 322 322 322 323 323 322 322 322 322 322 322 322 322 323 323 324 324 325 325 326 326 326 325 323 321 319
303 304 305 306 307 307 308 308 308 308 308 308 307 306 306 305 306 308 310 312 314 316 317 319 320 321 321 321 321 321 321 321 320 320 320 319 319 319 319 319 320 321 322 323 324 325 326 327 327 328 328 328 327 327 327 327 326 326 324 324 323 323 323 324 324 324 323 323 322 322 322 322 323 324 325 325 326 326 326 327 328 328 327 325 323 321
303 304 305 306 307 307 307 307 307 307 307 306 305 304 304 305 306 308 310 312 314 315 316 318 319 320 320 320 321 321 321 321 321 321 321 320 320 320 321 321 322 323 324 325 326 327 328 329 329 330 329 329 328 328 328 328 327 327 326 325 324 323 324 325 326 325 324 323 323 323 323 323 324 325 326 326 326 326 327 328 329 329 329 327 324 323
303 304 305 306 306 306 306 306 306 305 304 303 302 302 303 305 306 308 310 312 314 315 316 317 318 319 321 321 321 322 322 323 323 322 322 322 322 322 323 324 324 325 326 327 328 329 330 331 331 331 331 330 330 330 330 329 329 328 327 326 325 325 325 326 327 326 325 324 324 324 324 325 325 326 326 326 326 326 327 328 329 330 329 327 325 323
303 304 304 305 305 305 305 304 303 302 301 300 300 301 303 304 306 309 310 312 313 315 316 317 319 320 321 322 322 323 323 324 324 323 323 323 323 324 325 326 327 328 329 330 331 331 331 332 332 333 333 332 332 331 331 330 329 329 328 327 326 326 326 327 328 328 327 326 326 326 326 326 326 326 326 326 326 326 327 328 329 329 329 327 325 323
302 302 303 304 304 304 303 302 300 299 299 298 299 300 302 304 306 308 310 312 313 315 316 318 319 320 321 322 323 324 324 325 325 325 324 325 325 326 327 328 329 330 330 331 332 333 333 333 334 334 334 333 333 333 332 331 330 329 328 328 327 327 327 329 329 329 329 328 329 329 328 328 327 327 327 326 326 325 326 327 328 329 328 327 324 323
300 301 302 302 302 301 300 299 298 297 296 297 297 299 301 303 305 307 309 311 313 315 317 318 320 321 322 323 324 324 325 325 325 325 326 326 327 328 329 330 330 331 332 332 333 333 334 335 335 335 335 334 334 334 334 333 331 330 329 328 328 328 329 331 331 331 331 331 331 331 331 330 329 328 327 326 325 325 325 326 328 329 328 327 325 325
299 299 300 300 300 299 298 297 296 295 295 295 296 298 300 302 305 307 309 311 313 315 317 319 321 322 323 324 325 325 325 325 326 326 326 327 328 329 330 331 331 332 332 333 333 334 334 335 335 336 336 335 335 335 334 333 332 331 330 329 330 331 332 333 334 334 334 333 333 333 332 331 330 329 328 326 325 324 324 325 327 328 328 327 326 326
296 297 298 298 298 298 297 295 295 294 294 294 295 297 299 302 304 307 309 311 314 316 318 319 321 322 323 324 325 325 326 326 327 327 327 328 329 330 331 331 332 332 332 333 333 333 334 335 336 337 337 337 337 336 335 335 333 332 331 331 332 333 334 336 336 336 335 334 334 334 333 332 331 329 328 326 325 324 323 324 325 327 328 327 326 326
294 295 296 297 297 297 296 295 294 294 293 293 294 296 299 302 305 307 310 312 314 316 318 319 321 322 323 324 325 325 326 327 327 328 328 329 330 330 331 331 331 331 331 332 332 332 333 334 336 338 340 340 339 338 337 336 335 333 333 333 334 335 336 337 337 337 336 335 334 334 333 332 331 329 328 326 325 323 323 323 324 326 327 327 327 326
293 294 295 295 296 295 295 294 294 293 293 293 294 296 299 302 305 308 310 313 315 316 318 319 321 322 323 324 325 326 327 327 328 328 329 330 330 331 331 331 331 331 331 331 331 332 333 334 337 340 342 342 341 340 339 337 336 335 334 335 335 335 336 336 337 337 336 335 334 334 333 332 331 330 328 327 325 324 323 323 325 326 328 328 327 326
292 293 294 295 295 295 294 294 293 293 293 294 295 297 299 302 305 308 310 312 314 316 318 319 321 322 323 324 326 327 328 328 329 329 330 330 331 331 332 331 331 331 331 332 332 333 335 335 337 340 343 344 344 343 341 339 337 335 334 335 336 336 335 336 336 336 335 334 334 333 333 332 331 330 329 328 327 326 325 326 327 328 329 329 328 327